Location: Deerlick Astronomy Village
(33.5614°N, 82.7631°W)
Time: 19:24:39
(UTC-05:00)

CAS-4A - Pass Details

Date: 05 November 2020
Orbit: 528 x 543 km, 43.0° (Epoch: 30 November)

Event Time Altitude Azimuth Distance (km) Brightness Sun altitude
Exits shadow 06:19:39 - 262° (W) 1,941 ? -7.7°
Reaches altitude 10° 06:20:27 10° 253° (WSW) 1,770 ? -7.5°
Maximum altitude 06:22:22 13° 224° (SW) 1,577 ? -7.2°
Drops below altitude 10° 06:24:17 10° 196° (SSW) 1,762 ? -6.8°
Sets 06:27:32 0° 168° (SSE) 2,644 ? -6.1°
